METEOR 2-11 DEB

Satellite information

Favourite Embed

Satellite Type and Status

DEBRISIN ORBIT

Key statistics

Satellite METEOR 2-11 DEB at a glance.

Uptime

14918

Days in orbit

Revolutions

≈ 14.0

Per day

Orbit

LEO

Low Earth Orbit

Inclination

82.5

Latest

Satellite identification and parameters

Extended collection of information and parameters for METEOR 2-11 DEB.

Object identification

Identified? True

Debris? True

Object name: METEOR 2-11 DEB

International designator: 1984-072C

Object number (NORAD): 40317

Object ID (CCSDS): 40317

Country: COMMONWEALTH OF INDEPENDENT STATES (CIS)

Current information (Y/N): Y

RCS size: SMALL

Orbital parameters

Period: 103.035 minutes

Inclination: 82.5212 deg

SMA: 7280.326 km

Apoapsis: 910.944 km

Periapsis: 893.439 km

RAAN: 341.7787 deg

Eccentricy: 0.0012022

Argument of periapsis: 148.0496 deg

Mean anomaly: 212.1403 deg

Mean motion: 13.97579429 rev/day

Mean motion (dot): 0.00003091 rev/day2

B* drag term: 0.0021831 1/REarth

Two-line elements (TLE)

Creation date: May 2, 2025, 12:06 a.m.

Reference frame: TEME

Reference center: EARTH

Epoch: May 1, 2025, 9:51 p.m. UTC

TLE line 0: 0 METEOR 2-11 DEB

TLE line 1: 1 40317U 84072C 25121.91056741 .00003091 00000-0 21831-2 0 9990

TLE line 2: 2 40317 82.5212 341.7787 0012022 148.0496 212.1403 13.97579429528524

Live tracking on map

Real-time ground track for satellite METEOR 2-11 DEB.

In-orbit conjunctions

A list of the most updated potential collisions computed for object METEOR 2-11 DEB.

Target Orbit TCA Probability of collision Miss distance Type
CZ-6A DEB SSO 2024-11-14 21:19:44 0.0001188664 681.0 (m) DEBRIS
COSMOS 1275 DEB LEO 2024-11-14 01:29:18 0.0001574076 649.0 (m) DEBRIS
CZ-6A DEB SSO 2024-11-07 22:42:37 0.0002291175 476.0 (m) DEBRIS

Associated space launch

Second generation soviet meteorological satellite

METEOR 2-11 DEB was lifted into orbit during the mission ‘Tsiklon-3 | Meteor-2 11’, on board a Tsiklon-3 space rocket.

The launch took place on July 5, 1984, 3:35 a.m. from 32/2.

For more information about the launch, click the button.

Launch to space Tsiklon-3 | Meteor-2 11
Tsiklon-3 | Meteor-2 11

Agency: N/A

Status: Launch Successful

Launch date: July 5, 1984, 3:35 a.m. UTC

Rocket: Tsiklon-3

Launch pad: 32/2

Location: Plesetsk Cosmodrome, Russian Federation

...

Latest news about this satellite

There are no fresh news available about this satellite. Check back as we update our databases every day.


Newsletter sign-up

Weekly statistics, charts and insights to help you stay on top of the space industry.